South Lake Tahoe, CA

8:45 PM PDT on April 22, 2018 (GMT -0700)
Lake Tahoe

Weather History for KTVL - December, 2010

Change the Weather History Date:

Saturday, December 11, 2010

  Actual Average Record
Temperature  
Mean Temperature 42 °F 30 °F  
Max Temperature 55 °F 43 °F 59 °F (1990)
Min Temperature 29 °F 17 °F -19 °F (1972)
Degree Days  
Heating Degree Days 23 35  
Month to date heating degree days 275 376  
Since 1 July heating degree days 2201 2469  
Cooling Degree Days 0 0  
Month to date cooling degree days 0 0  
Year to date cooling degree days 43 31  
Moisture  
Dew Point 33 °F    
Average Humidity 73    
Maximum Humidity 92    
Minimum Humidity 54    
Precipitation  
Precipitation 0.00 in - 1.52 in (1937)
Month to date precipitation 0.79  
Year to date precipitation 20.78  
Snow  
Snow 0.00 in - - ()
Month to date snowfall T  
Snow Depth 0.00 in    
Sea Level Pressure  
Sea Level Pressure 30.32 in    
Wind  
Wind Speed 2 mph (SSW)    
Max Wind Speed 9 mph    
Max Gust Speed 12 mph    
Visibility 10 miles    
Events      
T = Trace of Precipitation, MM = Missing Value Source: NWS Daily Summary

Daily Weather History Graph

Daily Weather History Graph

Search for Another Location

Airport or City:

Astronomy

Dec. 11, 2010 Rise Set
Actual Time 7:08 AM PST 4:38 PM PST
Civil Twilight 6:38 AM PST 5:07 PM PST
Nautical Twilight 6:05 AM PST 5:41 PM PST
Astronomical Twilight 5:32 AM PST 6:13 PM PST
Moon 11:05 AM PST (12/11) 10:44 PM PST (12/11)
Length of Visible Light 10h 29m
Length of Day
9h 29m
Waxing Crescent, 34% of the Moon is Illuminated
Dec 11
Waxing Crescent
Dec 13
First Quarter
Dec 21
Full
Dec 27
Last Quarter
Jan 4
New

Hourly Weather History & Observations

Time (PST) Temp. Windchill Dew Point Humidity Pressure Visibility Wind Dir Wind Speed Gust Speed Precip Events Conditions
12:53 AM 36.0 °F - 30.0 °F 79% 30.24 in 10.0 mi Calm Calm - N/A   Partly Cloudy
1:53 AM 34.0 °F - 30.0 °F 85% 30.27 in 10.0 mi Calm Calm - N/A   Partly Cloudy
2:53 AM 35.1 °F - 30.9 °F 85% 30.27 in 10.0 mi Calm Calm - N/A   Overcast
3:53 AM 37.4 °F - 30.2 °F 75% 30.31 in 10.0 mi Calm Calm - N/A   Overcast
4:53 AM 37.9 °F 35.5 °F 30.9 °F 76% 30.27 in 10.0 mi WNW 3.5 mph - N/A   Mostly Cloudy
5:53 AM 37.9 °F 35.5 °F 30.9 °F 76% 30.28 in 10.0 mi South 3.5 mph - N/A   Overcast
6:53 AM 41.0 °F - 32.0 °F 70% 30.29 in 10.0 mi Calm Calm - N/A   Overcast
7:53 AM 39.2 °F - 33.8 °F 81% 30.35 in 10.0 mi Calm Calm - N/A   Overcast
8:53 AM 45.0 °F 41.2 °F 36.0 °F 71% 30.31 in 10.0 mi SW 6.9 mph - N/A   Overcast
9:53 AM 51.1 °F - 37.9 °F 61% 30.32 in 10.0 mi Calm Calm - N/A   Partly Cloudy
10:53 AM 52.0 °F - 37.9 °F 59% 30.32 in 10.0 mi Calm Calm - N/A   Clear
11:53 AM 54.0 °F - 37.0 °F 53% 30.29 in 10.0 mi NNE 8.1 mph - N/A   Clear
12:53 PM 53.1 °F - 37.9 °F 57% 30.29 in 10.0 mi NNE 6.9 mph - N/A   Clear
1:53 PM 52.0 °F - 37.9 °F 59% 30.29 in 10.0 mi NNE 5.8 mph - N/A   Clear
2:53 PM 52.0 °F - 37.9 °F 59% 30.30 in 10.0 mi NNE 5.8 mph - N/A   Clear
3:53 PM 44.6 °F - 37.4 °F 76% 30.36 in 10.0 mi Calm Calm - N/A   Clear
4:53 PM 41.0 °F - 36.0 °F 82% 30.34 in 10.0 mi Calm Calm - N/A   Clear
5:53 PM 37.9 °F - 34.0 °F 86% 30.36 in 10.0 mi Calm Calm - N/A   Clear
6:53 PM 36.0 °F 31.1 °F 33.1 °F 89% 30.36 in 10.0 mi South 5.8 mph - N/A   Clear
7:53 PM 34.0 °F - 30.9 °F 89% 30.37 in 10.0 mi Calm Calm - N/A   Clear
8:53 PM 32.0 °F - 28.9 °F 88% 30.37 in 9.0 mi Calm Calm - N/A   Clear
9:53 PM 30.9 °F 27.5 °F 28.0 °F 89% 30.36 in 7.0 mi South 3.5 mph - N/A   Clear
10:53 PM 30.0 °F - 27.0 °F 88% 30.37 in 7.0 mi Calm Calm - N/A   Clear
11:53 PM 28.9 °F 23.9 °F 26.1 °F 89% 30.38 in 7.0 mi SSW 4.6 mph - N/A   Clear